Time,TemperatureF,DewpointF,PressureIn,WindDirection,WindDirectionDegrees,WindSpeedMPH,WindSpeedGustMPH,Humidity,HourlyPrecipIn,Conditions,Clouds,dailyrainin,SoftwareType,DateUTC
2013-09-15 00:04:00,61.7,55.1,29.92,ESE,112,1.7,-999.0,79,-99.99,,,0.00,Acu-Link.com,2013-09-15 05:04:00,
2013-09-15 00:19:00,61.7,55.1,29.91,ESE,112,2.2,-999.0,79,-99.99,,,0.00,Acu-Link.com,2013-09-15 05:19:00,
2013-09-15 00:39:00,63.0,54.2,29.91,ESE,112,3.7,-999.0,73,-99.99,,,0.00,Acu-Link.com,2013-09-15 05:39:00,
2013-09-15 00:54:00,63.1,53.9,29.91,SSE,157,2.2,-999.0,72,-99.99,,,0.00,Acu-Link.com,2013-09-15 05:54:00,
2013-09-15 01:10:00,62.6,53.4,29.90,ESE,112,2.7,-999.0,72,-99.99,,,0.00,Acu-Link.com,2013-09-15 06:10:00,
2013-09-15 01:26:00,62.6,53.4,29.91,SE,135,3.2,-999.0,72,-99.99,,,0.00,Acu-Link.com,2013-09-15 06:26:00,
2013-09-15 01:41:00,62.2,53.1,29.91,ESE,112,2.7,-999.0,72,-99.99,,,0.00,Acu-Link.com,2013-09-15 06:41:00,
2013-09-15 01:56:00,61.9,53.5,29.91,ESE,112,1.1,-999.0,74,-99.99,,,0.00,Acu-Link.com,2013-09-15 06:56:00,
2013-09-15 02:11:00,61.2,53.2,29.91,ESE,112,0.0,-999.0,75,-99.99,,,0.00,Acu-Link.com,2013-09-15 07:11:00,
2013-09-15 02:26:00,60.6,53.3,29.91,SSE,157,0.0,-999.0,77,-99.99,,,0.00,Acu-Link.com,2013-09-15 07:26:00,
2013-09-15 02:42:00,59.9,53.0,29.91,ESE,112,2.2,-999.0,78,-99.99,,,0.00,Acu-Link.com,2013-09-15 07:42:00,
2013-09-15 02:57:00,59.9,53.0,29.91,SE,135,3.2,-999.0,78,-99.99,,,0.00,Acu-Link.com,2013-09-15 07:57:00,
2013-09-15 03:13:00,59.9,53.0,29.90,SSE,157,2.2,-999.0,78,-99.99,,,0.00,Acu-Link.com,2013-09-15 08:13:00,
2013-09-15 03:28:00,59.9,53.0,29.90,ESE,112,3.2,-999.0,78,-99.99,,,0.00,Acu-Link.com,2013-09-15 08:28:00,
2013-09-15 03:44:00,59.9,53.0,29.90,SE,135,2.2,-999.0,78,-99.99,,,0.00,Acu-Link.com,2013-09-15 08:44:00,
2013-09-15 03:59:00,59.5,53.0,29.91,SSE,157,2.7,-999.0,79,-99.99,,,0.00,Acu-Link.com,2013-09-15 08:59:00,
2013-09-15 04:14:00,59.4,52.5,29.90,ESE,112,2.2,-999.0,78,-99.99,,,0.00,Acu-Link.com,2013-09-15 09:14:00,
2013-09-15 04:30:00,58.8,52.3,29.91,ESE,112,0.0,-999.0,79,-99.99,,,0.00,Acu-Link.com,2013-09-15 09:30:00,
2013-09-15 04:45:00,58.3,52.2,29.91,SE,135,2.2,-999.0,80,-99.99,,,0.00,Acu-Link.com,2013-09-15 09:45:00,
2013-09-15 05:00:00,58.5,52.4,29.90,SSE,157,3.2,-999.0,80,-99.99,,,0.00,Acu-Link.com,2013-09-15 10:00:00,
2013-09-15 05:15:00,59.0,52.1,29.91,ESE,112,1.7,-999.0,78,-99.99,,,0.00,Acu-Link.com,2013-09-15 10:15:00,
2013-09-15 05:31:00,59.2,52.0,29.91,East,90,1.7,-999.0,77,-99.99,,,0.00,Acu-Link.com,2013-09-15 10:31:00,
2013-09-15 05:46:00,59.4,52.2,29.91,SE,135,2.7,-999.0,77,-99.99,,,0.00,Acu-Link.com,2013-09-15 10:46:00,
2013-09-15 06:01:00,59.4,52.2,29.92,ESE,112,1.7,-999.0,77,-99.99,,,0.00,Acu-Link.com,2013-09-15 11:01:00,
2013-09-15 06:17:00,59.2,52.3,29.92,SSE,157,0.0,-999.0,78,-99.99,,,0.00,Acu-Link.com,2013-09-15 11:17:00,
2013-09-15 06:32:00,58.6,52.1,29.92,ESE,112,0.0,-999.0,79,-99.99,,,0.00,Acu-Link.com,2013-09-15 11:32:00,
2013-09-15 06:50:00,58.5,52.4,29.92,NNE,22,0.0,-999.0,80,-99.99,,,0.00,Acu-Link.com,2013-09-15 11:50:00,
2013-09-15 07:06:00,58.1,52.3,29.93,ESE,112,1.1,-999.0,81,-99.99,,,0.00,Acu-Link.com,2013-09-15 12:06:00,
2013-09-15 07:21:00,58.5,52.4,29.93,ESE,112,2.2,-999.0,80,-99.99,,,0.00,Acu-Link.com,2013-09-15 12:21:00,
2013-09-15 07:36:00,59.4,52.5,29.94,ESE,112,2.7,-999.0,78,-99.99,,,0.00,Acu-Link.com,2013-09-15 12:36:00,
2013-09-15 07:53:00,60.6,53.3,29.95,ESE,112,1.7,-999.0,77,-99.99,,,0.00,Acu-Link.com,2013-09-15 12:53:00,
2013-09-15 08:08:00,61.9,53.9,29.94,SSE,157,3.2,-999.0,75,-99.99,,,0.00,Acu-Link.com,2013-09-15 13:08:00,
2013-09-15 08:24:00,63.5,54.7,29.94,ESE,112,3.2,-999.0,73,-99.99,,,0.00,Acu-Link.com,2013-09-15 13:24:00,
2013-09-15 08:39:00,65.1,55.1,29.94,SSE,157,2.2,-999.0,70,-99.99,,,0.00,Acu-Link.com,2013-09-15 13:39:00,
2013-09-15 08:54:00,66.0,54.3,29.94,ESE,112,4.2,-999.0,66,-99.99,,,0.00,Acu-Link.com,2013-09-15 13:54:00,
2013-09-15 09:09:00,68.2,55.5,29.94,SE,135,3.2,-999.0,64,-99.99,,,0.00,Acu-Link.com,2013-09-15 14:09:00,
2013-09-15 09:24:00,69.8,56.2,29.95,ESE,112,2.7,-999.0,62,-99.99,,,0.00,Acu-Link.com,2013-09-15 14:24:00,
2013-09-15 09:39:00,68.2,56.8,29.95,ESE,112,2.7,-999.0,67,-99.99,,,0.00,Acu-Link.com,2013-09-15 14:39:00,
2013-09-15 09:54:00,72.0,56.9,29.96,ESE,112,2.7,-999.0,59,-99.99,,,0.00,Acu-Link.com,2013-09-15 14:54:00,
2013-09-15 10:10:00,73.2,56.5,29.96,South,180,4.7,-999.0,56,-99.99,,,0.00,Acu-Link.com,2013-09-15 15:10:00,
2013-09-15 10:25:00,74.8,57.5,29.96,SSE,157,3.2,-999.0,55,-99.99,,,0.00,Acu-Link.com,2013-09-15 15:25:00,
2013-09-15 10:40:00,75.9,57.5,29.96,SSE,157,4.2,-999.0,53,-99.99,,,0.00,Acu-Link.com,2013-09-15 15:40:00,
2013-09-15 10:55:00,77.0,58.0,29.96,SSE,157,3.7,-999.0,52,-99.99,,,0.00,Acu-Link.com,2013-09-15 15:55:00,
2013-09-15 11:10:00,78.4,58.8,29.96,SSW,202,2.2,-999.0,51,-99.99,,,0.00,Acu-Link.com,2013-09-15 16:10:00,
2013-09-15 11:26:00,80.6,60.2,29.96,South,180,2.2,-999.0,50,-99.99,,,0.00,Acu-Link.com,2013-09-15 16:26:00,
2013-09-15 11:41:00,81.5,58.1,29.96,ESE,112,5.3,-999.0,45,-99.99,,,0.00,Acu-Link.com,2013-09-15 16:41:00,
2013-09-15 11:56:00,82.8,59.3,29.96,SE,135,4.2,-999.0,45,-99.99,,,0.00,Acu-Link.com,2013-09-15 16:56:00,
2013-09-15 12:11:00,83.7,59.4,29.96,East,90,4.7,-999.0,44,-99.99,,,0.00,Acu-Link.com,2013-09-15 17:11:00,
2013-09-15 12:27:00,84.7,61.0,29.95,SE,135,6.8,-999.0,45,-99.99,,,0.00,Acu-Link.com,2013-09-15 17:27:00,
2013-09-15 12:42:00,85.6,60.5,29.95,NNW,337,2.2,-999.0,43,-99.99,,,0.00,Acu-Link.com,2013-09-15 17:42:00,
2013-09-15 12:57:00,87.1,61.2,29.95,SSE,157,4.7,-999.0,42,-99.99,,,0.00,Acu-Link.com,2013-09-15 17:57:00,
2013-09-15 13:12:00,86.0,62.2,29.94,West,270,1.1,-999.0,45,-99.99,,,0.00,Acu-Link.com,2013-09-15 18:12:00,
2013-09-15 13:27:00,84.9,61.8,29.95,West,270,1.7,-999.0,46,-99.99,,,0.00,Acu-Link.com,2013-09-15 18:27:00,
2013-09-15 13:43:00,86.9,62.3,29.94,ESE,112,3.2,-999.0,44,-99.99,,,0.00,Acu-Link.com,2013-09-15 18:43:00,
2013-09-15 13:58:00,87.3,62.7,29.93,ESE,112,5.8,-999.0,44,-99.99,,,0.00,Acu-Link.com,2013-09-15 18:58:00,
2013-09-15 14:13:00,86.0,64.0,29.93,WNW,292,2.2,-999.0,48,-99.99,,,0.00,Acu-Link.com,2013-09-15 19:13:00,
2013-09-15 14:28:00,87.4,64.7,29.92,ESE,112,3.7,-999.0,47,-99.99,,,0.00,Acu-Link.com,2013-09-15 19:28:00,
2013-09-15 14:44:00,86.9,64.2,29.92,NW,315,3.2,-999.0,47,-99.99,,,0.00,Acu-Link.com,2013-09-15 19:44:00,
2013-09-15 14:59:00,88.7,65.8,29.92,ESE,112,3.7,-999.0,47,-99.99,,,0.00,Acu-Link.com,2013-09-15 19:59:00,
2013-09-15 15:14:00,88.2,64.8,29.92,West,270,2.2,-999.0,46,-99.99,,,0.00,Acu-Link.com,2013-09-15 20:14:00,
2013-09-15 15:30:00,86.2,65.9,29.92,WSW,247,1.7,-999.0,51,-99.99,,,0.00,Acu-Link.com,2013-09-15 20:30:00,
2013-09-15 15:45:00,86.9,66.0,29.91,NNE,22,2.7,-999.0,50,-99.99,,,0.00,Acu-Link.com,2013-09-15 20:45:00,
2013-09-15 16:00:00,86.5,65.0,29.90,WNW,292,2.7,-999.0,49,-99.99,,,0.00,Acu-Link.com,2013-09-15 21:00:00,
2013-09-15 16:15:00,86.4,64.4,29.91,South,180,2.7,-999.0,48,-99.99,,,0.00,Acu-Link.com,2013-09-15 21:15:00,
2013-09-15 16:30:00,86.2,65.3,29.91,ESE,112,1.7,-999.0,50,-99.99,,,0.00,Acu-Link.com,2013-09-15 21:30:00,
2013-09-15 16:46:00,86.4,66.1,29.91,NNW,337,0.0,-999.0,51,-99.99,,,0.00,Acu-Link.com,2013-09-15 21:46:00,
2013-09-15 17:01:00,87.1,67.9,29.91,NNW,337,0.0,-999.0,53,-99.99,,,0.00,Acu-Link.com,2013-09-15 22:01:00,
2013-09-15 17:16:00,87.4,68.1,29.90,NE,45,0.0,-999.0,53,-99.99,,,0.00,Acu-Link.com,2013-09-15 22:16:00,
2013-09-15 17:31:00,88.0,69.2,29.91,NNW,337,0.0,-999.0,54,-99.99,,,0.00,Acu-Link.com,2013-09-15 22:31:00,
2013-09-15 17:46:00,87.4,69.2,29.92,NNW,337,0.0,-999.0,55,-99.99,,,0.00,Acu-Link.com,2013-09-15 22:46:00,
2013-09-15 18:02:00,86.5,69.9,29.91,ESE,112,0.0,-999.0,58,-99.99,,,0.00,Acu-Link.com,2013-09-15 23:02:00,
2013-09-15 18:17:00,85.3,71.2,29.92,South,180,0.0,-999.0,63,-99.99,,,0.00,Acu-Link.com,2013-09-15 23:17:00,
2013-09-15 18:32:00,84.4,71.3,29.91,NE,45,0.0,-999.0,65,-99.99,,,0.00,Acu-Link.com,2013-09-15 23:32:00,
2013-09-15 18:48:00,81.9,70.7,29.92,NE,45,0.0,-999.0,69,-99.99,,,0.00,Acu-Link.com,2013-09-15 23:48:00,
2013-09-15 19:03:00,80.1,70.6,29.92,ENE,67,0.0,-999.0,73,-99.99,,,0.00,Acu-Link.com,2013-09-16 00:03:00,
2013-09-15 19:18:00,78.8,69.8,29.92,ENE,67,0.0,-999.0,74,-99.99,,,0.00,Acu-Link.com,2013-09-16 00:18:00,
2013-09-15 19:33:00,77.9,68.5,29.91,SE,135,0.0,-999.0,73,-99.99,,,0.00,Acu-Link.com,2013-09-16 00:33:00,
2013-09-15 19:48:00,77.4,68.4,29.91,SSE,157,0.0,-999.0,74,-99.99,,,0.00,Acu-Link.com,2013-09-16 00:48:00,
2013-09-15 20:04:00,76.3,68.9,29.92,SE,135,0.0,-999.0,78,-99.99,,,0.00,Acu-Link.com,2013-09-16 01:04:00,
2013-09-15 20:19:00,75.2,69.0,29.92,ESE,112,0.0,-999.0,81,-99.99,,,0.00,Acu-Link.com,2013-09-16 01:19:00,
2013-09-15 20:34:00,74.1,68.6,29.93,ESE,112,0.0,-999.0,83,-99.99,,,0.00,Acu-Link.com,2013-09-16 01:34:00,
2013-09-15 20:50:00,73.8,67.9,29.94,SE,135,0.0,-999.0,82,-99.99,,,0.00,Acu-Link.com,2013-09-16 01:50:00,
2013-09-15 21:05:00,73.6,67.4,29.94,ESE,112,0.0,-999.0,81,-99.99,,,0.00,Acu-Link.com,2013-09-16 02:05:00,
2013-09-15 21:20:00,74.3,67.0,29.95,SE,135,3.7,-999.0,78,-99.99,,,0.00,Acu-Link.com,2013-09-16 02:20:00,
2013-09-15 21:36:00,74.8,66.7,29.95,East,90,2.7,-999.0,76,-99.99,,,0.00,Acu-Link.com,2013-09-16 02:36:00,
2013-09-15 21:51:00,75.0,66.5,29.94,NE,45,2.2,-999.0,75,-99.99,,,0.00,Acu-Link.com,2013-09-16 02:51:00,
2013-09-15 22:06:00,74.7,66.2,29.95,SE,135,0.0,-999.0,75,-99.99,,,0.00,Acu-Link.com,2013-09-16 03:06:00,
2013-09-15 22:21:00,73.8,66.5,29.94,SSE,157,0.0,-999.0,78,-99.99,,,0.00,Acu-Link.com,2013-09-16 03:21:00,
2013-09-15 22:36:00,73.0,65.7,29.95,SSE,157,0.0,-999.0,78,-99.99,,,0.00,Acu-Link.com,2013-09-16 03:36:00,
2013-09-15 22:52:00,72.0,65.8,29.95,SSE,157,0.0,-999.0,81,-99.99,,,0.00,Acu-Link.com,2013-09-16 03:52:00,
2013-09-15 23:07:00,71.2,65.8,29.95,SSE,157,0.0,-999.0,83,-99.99,,,0.00,Acu-Link.com,2013-09-16 04:07:00,
2013-09-15 23:22:00,70.5,65.4,29.95,NE,45,0.0,-999.0,84,-99.99,,,0.00,Acu-Link.com,2013-09-16 04:22:00,
2013-09-15 23:38:00,70.2,65.1,29.96,NE,45,0.0,-999.0,84,-99.99,,,0.00,Acu-Link.com,2013-09-16 04:38:00,
2013-09-15 23:53:00,70.0,64.9,29.96,NE,45,0.0,-999.0,84,-99.99,,,0.00,Acu-Link.com,2013-09-16 04:53:00,